Regional Weather Roundup
Issued by NWS Charleston, SC

Current Version | Previous Version | Graphics & Text | Print | Product List | Glossary On
Versions: 1 2 3 4 5 6 7 8 9 10 11 12 13 14 15 16 17 18 19 20 21 22 23 24 25 26 27 28 29 30 31 32 33 34 35 36 37 38 39 40 41 42 43 44 45 46 47 48 49 50
000
ASUS42 KCHS 211012
RWRCHS

REGIONAL WEATHER ROUNDUP
NATIONAL WEATHER SERVICE CHARLESTON SC
500 AM EST SAT JAN 21 2017

NOTE: "FAIR" INDICATES FEW OR NO CLOUDS BELOW 12,000 FEET WITH NO
SIGNIFICANT WEATHER AND/OR OBSTRUCTIONS TO VISIBILITY.

NOT ALL STATIONS ARE QUALITY CONTROLLED. USE DATA WITH CAUTION...
ESPECIALLY DEWPOINT OBSERVATIONS.

SCZ027-030-031-034>040-042>050-211100-
...SOUTHEAST SOUTH CAROLINA...

CITY           SKY/WX    TMP DP  RH WIND       PRES   REMARKS
N CHARLESTON   LGT RAIN  66  64  93 SW7       29.87F
WATERFRONT PRK   N/A     63  63 100 VRB2      29.88S
MOUNT PLEASANT PTSUNNY   66  64  94 S6        29.88F
JOHNS ISLAND   CLOUDY    64  64 100 S6        29.88F
PINOPOLIS        N/A     63  63 100 VRB3      29.80S
MONCKS CORNER  CLOUDY    61  59  94 CALM      29.87F FOG
SUMMERVILLE    CLOUDY   N/A N/A N/A CALM      29.88F
BEAUFORT MCAS  CLOUDY    63  62  97 CALM      29.87F
BEAUFORT ARPT  FAIR      61  61 100 CALM      29.87F FOG
HILTON HEAD IS CLOUDY    63  63 100 CALM      29.88F
WALTERBORO     CLOUDY    63  63 100 CALM      29.88F
ALLENDALE      CLOUDY    63  63 100 CALM      29.86F FOG

...SOUTHERN MIDLANDS AND PEE DEE...

CITY           SKY/WX    TMP DP  RH WIND       PRES   REMARKS
GEORGETOWN     CLOUDY    61  61 100 CALM      29.89S
KINGSTREE      CLOUDY    57  55  94 CALM      29.88F
ORANGEBURG     MOCLDY    60  59  96 CALM      29.87F
BARNWELL       PTSUNNY   63  63 100 CALM      29.87F FOG
AIKEN          CLOUDY    59  59 100 CALM      29.90F
MANNING        CLOUDY    57  55  94 CALM      29.88F
COLUMBIA       CLOUDY    59  55  87 CALM      29.86F
SUMTER         MOCLDY    54  53  96 NE3       29.86F
FLORENCE       CLOUDY    56  56 100 CALM      29.89F FOG
MYRTLE BEACH   CLOUDY    61  55  82 CALM      29.90F
N MYRTLE BEACH CLOUDY    54  54 100 CALM      29.89S FOG

$$

GAZ063-065-086>088-099>101-113>116-118-119-134>141-150-211100-
...SOUTHEAST GEORGIA...

CITY           SKY/WX    TMP DP  RH WIND       PRES   REMARKS
SAVANNAH ARPT  CLOUDY    65  62  90 SW3       29.89F
HUNTER AAF     CLOUDY    67  67 100 SW8       29.86F
FORT STEWART   CLOUDY    64  64  98 CALM      29.86F
STATESBORO     CLOUDY    65  32  29 CALM      29.87F FOG
SYLVANIA       CLOUDY   N/A N/A N/A CALM      29.88F FOG
CLAXTON        CLOUDY   N/A N/A N/A CALM      29.89R

...CSRA...CENTRAL AND FAR SOUTHEAST GEORGIA...

CITY           SKY/WX    TMP DP  RH WIND       PRES   REMARKS
THOMSON        CLOUDY    63  63 100 CALM      29.91S
AUGUSTA-BUSH   CLOUDY    61  58  90 CALM      29.86F
AUGUSTA-DANIEL CLOUDY    64  59  83 S3        29.87F
SWAINSBORO     CLOUDY    66  66 100 CALM      29.88F
VIDALIA        CLOUDY    68  68 100 CALM      29.87F FOG
EASTMAN        CLOUDY    68  68 100 CALM      29.88F FOG
HAZLEHURST     CLOUDY    69  69 100 CALM      29.86F
ALMA           CLOUDY    69  68  96 S3        29.87F
WAYCROSS       CLOUDY    72  72 100 SW6       29.87F
JESUP          CLOUDY    70  64  83 CALM      29.88F
BAXLEY         CLOUDY    70  70 100 S5        29.87F
BRUNSWICK      CLOUDY    68  68 100 SW8       29.90F
SAINT SIMONS   CLOUDY    67  65  93 SW7       29.89F

$$

SCZ027-028-034-036>038-045-046-048>050-GAZ119-141-211100-
...LAKE AND SUPPLEMENTAL COASTAL OBSERVATIONS...

STATION/POSITION TIME  TEMP    WIND        PRES    WAVE   SWELL
                       AIR SEA DIR/SP/G            HT/PER HT/PER/DIR
                 (UTC) (F)     (DEG/KT/KT) (MB)    (FT/S) (FT/S/D)
WINYAH BAY       0845   61        CALM     1012.0
LAKE MURRAY      0920   59      CALM  /  1 1011.5S
ACE BASIN NERRS  0845   62        CALM     1012.0
FORT PULASKI     0948   63 58  200/  3/  4 1011.9F
SAPELO ISLAND    0900   64     190/  4     1013.0

$$

ANZ835-935-AMZ111-154-330-350-352-354-370-450-454-472-211100-
...C-MAN AND BUOY OBSERVATIONS...

STATION/POSITION TIME  TEMP    WIND        PRES    WAVE   SWELL
                       AIR SEA DIR/SP/G            HT/PER HT/PER/DIR
                 (UTC) (F)     (DEG/KT/KT) (MB)    (FT/S) (FT/S/D)
BUOY 41004       0850   70 68  190/  4/  4 1012.0    2/13   2/100/13
BUOY 41008       0850   64 61  190/ 10/ 12 1012.3    2/13   2/ 80/13
FOLLY BEACH CMAN 0900   62     220/  3/  3 1012.6F
CAPERS NEARSHORE 0908   58     220/  4/  6 1011.8F
FRIPP NEARSHORE  0908   61 58  200/  6/  8 1012.2F


STATION/POSITION TIME  TEMP    WIND        PRES    WAVE   SWELL
                       AIR SEA DIR/SP/G            HT/PER HT/PER/DIR
                 (UTC) (F)     (DEG/KT/KT) (MB)    (FT/S) (FT/S/D)
5E ST. MARYS GA  0930      64                N/A     2/13   2/ 80/13
FRYING PAN BUOY  0950   70 70  240/  8/ 10 1012.4F   3/12   3/100/12
BUOY 41025       0950   57 74   10/ 14/ 16 1012.5F   5/11   3/ 70/11
CAPE LOOKOUT NC  0900   50      20/  7/  8 1012.8F
BUOY 41002       0950   72 70  310/ 14/ 16 1012.5F   6/11   3/ 50/11
BUOY 41010       NOT AVBL
ST AUGUSTINE FL  1000   64 63  210/  7/  9 1013.6F


$$




USA.gov is the U.S. government's official web portal to all federal, state and local government web resources and services.